When you browse on this site, cookies collect data to enhance your experience and personalize the content and advertising you see.
Visit our Privacy Policy to learn more. By continuing to use the site, you agree to this use of cookies and data.
  • En España
  • Lista de países
  • Para 7 días
  • Temperatura del agua
  • Mapa Satelital
  • El tiempo en el mapa
  • Informadores
  • user-avatar
    Iniciar sesión

    Tiempo cada hora Wavre

    Hoy, 16 Diciembre, Domingo

    Tiempo Temperatura Precipitaciones Viento Presión Humedad
    00:00 -2°C° 0 mm 6 mps 752 mmHg 92%
    01:00 -1°C° 0.3 mm 5 mps 752 mmHg 92%
    02:00 -1°C° 0.3 mm 5 mps 751 mmHg 93%
    03:00 -1°C° 0.3 mm 5 mps 751 mmHg 93%
    04:00 -1°C° 0 mm 4 mps 751 mmHg 94%
    05:00 -1°C° 0 mm 4 mps 751 mmHg 94%
    06:00 -2°C° 0 mm 5 mps 751 mmHg 93%
    07:00 -1°C° 0 mm 4 mps 752 mmHg 94%
    08:00 -1°C° 0 mm 4 mps 752 mmHg 95%
    09:00 -1°C° 0 mm 4 mps 752 mmHg 96%
    10:00 0°C° 0 mm 4 mps 752 mmHg 97%
    11:00 0°C° 0 mm 4 mps 752 mmHg 98%
    12:00 +1°C° 0 mm 4 mps 752 mmHg 99%
    13:00 +1°C° 0 mm 4 mps 752 mmHg 99%
    14:00 +1°C° 0 mm 4 mps 752 mmHg 99%
    15:00 +1°C° 0 mm 4 mps 753 mmHg 99%
    16:00 +1°C° 0 mm 4 mps 753 mmHg 99%
    17:00 +1°C° 0 mm 4 mps 753 mmHg 98%
    18:00 +1°C° 0 mm 4 mps 753 mmHg 98%
    19:00 +2°C° 0 mm 3 mps 753 mmHg 98%
    20:00 +2°C° 0 mm 3 mps 753 mmHg 97%
    21:00 +2°C° 0 mm 3 mps 753 mmHg 97%
    22:00 +1°C° 0 mm 4 mps 753 mmHg 96%
    23:00 +1°C° 0 mm 4 mps 754 mmHg 96%

    Mañana, 17 Diciembre, Lunes

    Tiempo Temperatura Precipitaciones Viento Presión Humedad
    00:00 +1°C° 0 mm 4 mps 754 mmHg 95%
    01:00 +1°C° 0 mm 5 mps 753 mmHg 94%
    02:00 +1°C° 0 mm 5 mps 753 mmHg 93%
    03:00 +1°C° 0 mm 5 mps 753 mmHg 93%
    04:00 +1°C° 0 mm 5 mps 754 mmHg 93%
    05:00 +2°C° 0 mm 5 mps 754 mmHg 93%
    06:00 +2°C° 0 mm 6 mps 754 mmHg 93%
    07:00 +2°C° 0.1 mm 6 mps 755 mmHg 93%
    08:00 +3°C° 0.1 mm 6 mps 756 mmHg 93%
    09:00 +3°C° 0.1 mm 6 mps 756 mmHg 93%
    10:00 +4°C° 0.2 mm 6 mps 757 mmHg 92%
    11:00 +4°C° 0.2 mm 6 mps 757 mmHg 91%
    12:00 +5°C° 0.2 mm 6 mps 758 mmHg 90%
    13:00 +5°C° 0 mm 5 mps 759 mmHg 90%
    14:00 +5°C° 0 mm 4 mps 759 mmHg 90%
    15:00 +5°C° 0 mm 4 mps 760 mmHg 90%
    16:00 +4°C° 0 mm 3 mps 760 mmHg 91%
    17:00 +3°C° 0 mm 3 mps 761 mmHg 92%
    18:00 +3°C° 0 mm 3 mps 761 mmHg 93%
    19:00 +3°C° 0 mm 3 mps 762 mmHg 94%
    20:00 +3°C° 0 mm 3 mps 762 mmHg 94%
    21:00 +3°C° 0 mm 3 mps 763 mmHg 95%
    22:00 +3°C° 0 mm 3 mps 763 mmHg 94%
    23:00 +1°C° 0 mm 4 mps 763 mmHg 94%

    Pasado mañana, 18 Diciembre, Martes

    Tiempo Temperatura Precipitaciones Viento Presión Humedad
    00:00 +1°C° 0 mm 4 mps 763 mmHg 94%
    01:00 +1°C° 0 mm 4 mps 762 mmHg 94%
    02:00 +3°C° 0 mm 4 mps 762 mmHg 93%
    03:00 +3°C° 0 mm 4 mps 762 mmHg 93%
    04:00 +2°C° 0 mm 5 mps 762 mmHg 93%
    05:00 +2°C° 0 mm 5 mps 761 mmHg 93%
    06:00 +2°C° 0 mm 5 mps 761 mmHg 94%
    07:00 +2°C° 0 mm 5 mps 761 mmHg 92%
    08:00 +2°C° 0 mm 5 mps 760 mmHg 91%
    09:00 +2°C° 0 mm 5 mps 760 mmHg 90%
    10:00 +3°C° 0 mm 5 mps 759 mmHg 84%
    11:00 +4°C° 0 mm 6 mps 759 mmHg 78%
    12:00 +5°C° 0 mm 6 mps 758 mmHg 73%
    13:00 +5°C° 0 mm 6 mps 757 mmHg 72%
    14:00 +4°C° 0 mm 6 mps 756 mmHg 72%
    15:00 +4°C° 0 mm 6 mps 756 mmHg 72%
    16:00 +3°C° 0 mm 6 mps 755 mmHg 72%
    17:00 +3°C° 0 mm 6 mps 755 mmHg 72%
    18:00 +3°C° 0 mm 7 mps 754 mmHg 72%
    19:00 +3°C° 0 mm 7 mps 754 mmHg 72%
    20:00 +4°C° 0 mm 7 mps 753 mmHg 72%
    21:00 +4°C° 0 mm 7 mps 753 mmHg 73%
    22:00 +4°C° 0.1 mm 7 mps 752 mmHg 75%
    23:00 +4°C° 0.1 mm 7 mps 752 mmHg 77%

    19 Diciembre, Miércoles

    Tiempo Temperatura Precipitaciones Viento Presión Humedad
    00:00 +5°C° 0.1 mm 7 mps 752 mmHg 79%
    01:00 +5°C° 0.5 mm 7 mps 752 mmHg 83%
    02:00 +5°C° 0.5 mm 7 mps 752 mmHg 86%
    03:00 +5°C° 0.5 mm 6 mps 752 mmHg 89%
    04:00 +5°C° 0 mm 6 mps 752 mmHg 90%
    05:00 +6°C° 0 mm 5 mps 753 mmHg 92%
    06:00 +5°C° 0 mm 4 mps 753 mmHg 94%
    07:00 +5°C° 0 mm 4 mps 753 mmHg 93%
    08:00 +5°C° 0 mm 5 mps 753 mmHg 93%
    09:00 +5°C° 0 mm 5 mps 754 mmHg 93%
    10:00 +6°C° 0 mm 5 mps 754 mmHg 90%
    11:00 +6°C° 0 mm 5 mps 753 mmHg 88%
    12:00 +7°C° 0 mm 5 mps 753 mmHg 85%
    13:00 +7°C° 0.1 mm 5 mps 753 mmHg 87%
    14:00 +6°C° 0.1 mm 4 mps 753 mmHg 88%
    15:00 +6°C° 0.1 mm 4 mps 753 mmHg 89%
    16:00 +6°C° 0.1 mm 4 mps 753 mmHg 90%
    17:00 +7°C° 0.1 mm 3 mps 753 mmHg 91%
    18:00 +7°C° 0.1 mm 3 mps 753 mmHg 93%
    19:00 +5°C° 0 mm 3 mps 754 mmHg 93%
    20:00 +5°C° 0 mm 3 mps 754 mmHg 94%
    21:00 +4°C° 0 mm 3 mps 754 mmHg 94%
    22:00 +4°C° 0 mm 3 mps 754 mmHg 94%
    23:00 +3°C° 0 mm 3 mps 754 mmHg 94%

    20 Diciembre, Jueves

    Tiempo Temperatura Precipitaciones Viento Presión Humedad
    00:00 +3°C° 0 mm 3 mps 755 mmHg 94%
    01:00 +3°C° 0 mm 3 mps 755 mmHg 94%
    02:00 +3°C° 0 mm 3 mps 755 mmHg 94%
    03:00 +2°C° 0 mm 3 mps 755 mmHg 94%
    04:00 +2°C° 0 mm 3 mps 756 mmHg 94%
    05:00 +1°C° 0 mm 4 mps 756 mmHg 94%
    06:00 +1°C° 0 mm 4 mps 756 mmHg 93%
    07:00 +1°C° 0 mm 4 mps 756 mmHg 93%
    08:00 +1°C° 0 mm 5 mps 757 mmHg 92%
    09:00 +2°C° 0 mm 5 mps 757 mmHg 91%
    10:00 +2°C° 0 mm 5 mps 757 mmHg 89%
    11:00 +3°C° 0 mm 6 mps 757 mmHg 86%
    12:00 +4°C° 0 mm 6 mps 757 mmHg 84%
    13:00 +4°C° 0 mm 6 mps 757 mmHg 84%
    14:00 +4°C° 0 mm 6 mps 757 mmHg 85%
    15:00 +3°C° 0 mm 6 mps 756 mmHg 85%
    16:00 +4°C° 0.1 mm 6 mps 756 mmHg 86%
    17:00 +4°C° 0.1 mm 6 mps 756 mmHg 86%
    18:00 +4°C° 0.1 mm 7 mps 756 mmHg 86%
    19:00 +4°C° 0.1 mm 7 mps 756 mmHg 87%
    20:00 +4°C° 0.1 mm 7 mps 756 mmHg 87%
    21:00 +5°C° 0.1 mm 7 mps 755 mmHg 87%
    22:00 +5°C° 0.2 mm 7 mps 755 mmHg 88%
    23:00 +5°C° 0.2 mm 7 mps 754 mmHg 88%

    21 Diciembre, Viernes

    Tiempo Temperatura Precipitaciones Viento Presión Humedad
    00:00 +5°C° 0.2 mm 7 mps 754 mmHg 88%
    01:00 +6°C° 1.5 mm 7 mps 753 mmHg 89%
    02:00 +6°C° 1.5 mm 7 mps 753 mmHg 89%
    03:00 +6°C° 1.5 mm 7 mps 752 mmHg 89%
    04:00 +6°C° 1.4 mm 7 mps 751 mmHg 89%
    05:00 +7°C° 1.4 mm 8 mps 751 mmHg 89%
    06:00 +7°C° 1.4 mm 8 mps 750 mmHg 88%
    07:00 +7°C° 0.7 mm 8 mps 750 mmHg 88%
    08:00 +7°C° 0.7 mm 9 mps 749 mmHg 87%
    09:00 +7°C° 0.7 mm 9 mps 749 mmHg 86%
    10:00 +8°C° 0.9 mm 9 mps 748 mmHg 86%
    11:00 +8°C° 0.9 mm 10 mps 747 mmHg 86%
    12:00 +8°C° 0.9 mm 10 mps 746 mmHg 85%
    13:00 +9°C° 0.2 mm 10 mps 747 mmHg 82%
    14:00 +9°C° 0.2 mm 10 mps 748 mmHg 79%
    15:00 +9°C° 0.2 mm 10 mps 748 mmHg 76%
    16:00 +10°C° 0 mm 9 mps 749 mmHg 79%
    17:00 +9°C° 0 mm 8 mps 750 mmHg 81%
    18:00 +8°C° 0 mm 7 mps 752 mmHg 83%
    19:00 +8°C° 0.1 mm 7 mps 752 mmHg 84%
    20:00 +9°C° 0.1 mm 7 mps 752 mmHg 84%
    21:00 +9°C° 0.1 mm 8 mps 753 mmHg 84%
    22:00 +9°C° 0 mm 8 mps 753 mmHg 84%
    23:00 +9°C° 0 mm 8 mps 753 mmHg 85%
    Mostrar más